Location: Eisingen in Unterfranken
(49.7591°N, 9.8347°E)
Time: 02:23:48
(UTC+01:00)

BlueWalker 3 - Pass Details

Date: 01 December 2022
Orbit: 499 x 517 km, 53.2° (Epoch: 26 January)

Event Time Altitude Azimuth Distance (km) Brightness Sun altitude
Rises 18:46:39 0° 280° (W) 2,631 6.8 -22.4°
Reaches altitude 10° 18:48:54 10° 286° (WNW) 1,740 5.6 -22.7°
Enters shadow 18:52:16 47° 336° (NNW) 690 2.6 -23.3°
